[[{"header":{"parameterUnit":"m.s-1","parameterCategory":1,"la1":30.2991,"la2":30.254,"lo1":-89.0895,"lo2":-89.0444,"dy":0.0017,"dx":0.0017,"nx":28,"ny":28,"refTime":"2023-10-30T21:00:00:Z","depth":0,"parameterNumber":2,"parameterNumberName":"U-component_of_WINDS"},"data":[0,0,0,0,0,0,0,0,0,0,0,0,0,0,0,0,0,0,0,0,0,0,0,0,0,0,0,0,0,0,0,0,0,0,0,0,0,0,0,0,0,0,0,0,0,0,0,0,0,0,0,0,0,0,0,0,0,0,-0.0786,-0.0787,0,-0.0877,-0.0878,-0.0879,-0.0875,-0.0873,-0.0872,-0.0871,-0.0967,-0.097,-0.0974,0,0,0,0,0,0,0,0,0,0,0,0,0,-0.0612,-0.0615,-0.0786,-0.0787,-0.0788,-0.0876,-0.0878,-0.0879,-0.0875,-0.0873,-0.0872,-0.087,-0.0966,-0.097,-0.0975,0,0,0,0,0,0,0,0,0,0,0,0,0,-0.0693,-0.0616,-0.0786,-0.0797,-0.0799,-0.0876,-0.0878,-0.0879,-0.0875,-0.0873,-0.0871,-0.0869,-0.0964,-0.097,-0.0975,-0.1049,0,0,-0.0992,-0.0995,0,0,0,0,0,0,0,0,-0.0689,-0.07,-0.0794,-0.0796,-0.0798,-0.0862,-0.0851,-0.0936,-0.0876,-0.0846,-0.0871,-0.0868,-0.0934,-0.0942,-0.0963,-0.1053,-0.1057,-0.0993,-0.0996,-0.0999,-0.1,0,0,0,0,0,0,0,-0.0683,-0.0696,-0.0822,-0.0795,-0.0798,-0.0798,-0.0807,-0.0868,-0.09,-0.0849,-0.0848,-0.0859,-0.0935,-0.0958,-0.0965,-0.1059,-0.0993,-0.0998,-0.1001,-0.1003,-0.1214,-0.1216,0,0,0,0,0,0,-0.0675,-0.0691,-0.0819,-0.0825,-0.0738,-0.0803,-0.0813,-0.0844,-0.0899,-0.0906,-0.0861,-0.0859,-0.0949,-0.0959,-0.0969,-0.1059,-0.0999,-0.1004,-0.1007,-0.1212,-0.1214,-0.1217,0,0,0,0,0,0,-0.0671,-0.0686,-0.0815,-0.0758,-0.0774,-0.0808,-0.0842,-0.0847,-0.087,-0.0908,-0.0914,-0.0878,-0.0948,-0.0961,-0.1029,-0.1063,-0.1007,-0.1012,-0.1209,-0.1213,-0.1216,-0.1241,0,0,0,0,0,0,-0.0666,-0.0685,-0.0713,-0.0759,-0.0777,-0.0873,-0.0844,-0.085,-0.0879,-0.0877,-0.0926,-0.0933,-0.0947,-0.102,-0.1034,-0.1069,-0.1016,-0.1206,-0.1211,-0.1215,-0.1237,-0.1245,-0.1251,0,0,0,0,0,-0.066,-0.0717,-0.0714,-0.073,-0.0813,-0.0875,-0.0886,-0.0901,-0.0882,-0.0911,-0.0935,-0.0931,-0.1056,-0.1027,-0.1043,-0.108,-0.1204,-0.1209,-0.1214,-0.1234,-0.1243,-0.1251,0,0,0,0,0,0,-0.0676,-0.0723,-0.0721,-0.0794,-0.0831,-0.0875,-0.0912,-0.091,-0.0954,-0.095,-0.0968,-0.0979,-0.1047,-0.107,-0.1037,-0.1154,-0.1128,-0.1136,-0.1137,-0.1146,-0.1153,-0.1147,-0.1021,0,0,0,0,0,-0.0688,-0.0734,-0.0773,-0.0834,-0.0852,-0.0878,-0.0906,-0.0914,-0.0953,-0.0969,-0.0998,-0.1037,-0.1085,-0.1117,-0.1163,-0.1239,-0.1251,-0.1273,-0.1279,-0.1285,-0.1293,-0.1336,-0.1346,-0.1233,-0.1233,-0.1233,0,0,-0.0714,-0.0745,-0.0773,-0.0838,-0.0867,-0.0915,-0.0892,-0.0944,-0.098,-0.0977,-0.1043,-0.1066,-0.111,-0.1183,-0.1216,-0.1204,-0.1326,-0.1291,-0.1295,-0.13,-0.1342,-0.1352,-0.1362,-0.1236,-0.1236,-0.1235,0,0,-0.0785,-0.0813,-0.0867,-0.0896,-0.094,-0.0957,-0.097,-0.1013,-0.1028,-0.1094,-0.1093,-0.1136,-0.1218,-0.125,-0.1277,-0.1358,-0.1357,-0.1373,-0.141,-0.1451,-0.146,-0.1468,-0.1499,-0.1509,-0.138,-0.138,-0.138,0,-0.0812,-0.0884,-0.0896,-0.0948,-0.0977,-0.0974,-0.103,-0.1058,-0.1115,-0.1135,-0.112,-0.1222,-0.1252,-0.1332,-0.1352,-0.1373,-0.1389,-0.1369,-0.1458,-0.1466,-0.1474,-0.1503,-0.1514,-0.1382,-0.1381,-0.1381,-0.1381,0,-0.0915,-0.0965,-0.1003,-0.1057,-0.109,-0.1144,-0.1164,-0.1196,-0.12,-0.1219,-0.1286,-0.1321,-0.1374,-0.1393,-0.1399,-0.1474,-0.1466,-0.1454,-0.1428,-0.1486,-0.1514,-0.1525,-0.1384,-0.1384,-0.1383,-0.1383,0,0,-0.1003,-0.1061,-0.1075,-0.1099,-0.1146,-0.1186,-0.1238,-0.1289,-0.1317,-0.1355,-0.1402,-0.147,-0.1459,-0.1489,-0.1498,-0.1534,-0.1597,-0.1518,-0.1519,-0.1533,-0.1684,-0.1695,-0.1707,-0.1595,-0.1597,-0.1599,-0.1681,0,-0.1081,-0.1175,-0.1186,-0.127,-0.1316,-0.1314,-0.136,-0.1394,-0.1412,-0.1455,-0.1475,-0.1524,-0.1505,-0.1523,-0.1558,-0.1582,-0.1628,-0.1576,-0.164,-0.1642,-0.1631,-0.1722,-0.1733,-0.1809,-0.1692,-0.1694,-0.1695,0,-0.1185,-0.1226,-0.1314,-0.1354,-0.1374,-0.1416,-0.1463,-0.1503,-0.1541,-0.1552,-0.1585,-0.1588,-0.1644,-0.1613,-0.169,-0.1654,-0.1681,-0.1696,-0.1699,-0.1708,-0.1674,-0.1735,-0.1834,-0.1846,-0.1712,-0.1711,-0.171,0,-0.1243,-0.1319,-0.1382,-0.1402,-0.145,-0.148,-0.1501,-0.1537,-0.1567,-0.1608,-0.1628,-0.1675,-0.1701,-0.1738,-0.1754,-0.173,-0.1831,-0.1802,-0.1843,-0.1843,-0.1867,-0.1866,-0.1974,-0.188,-0.1879,-0.1879,-0.1879,0,-0.133,-0.1385,-0.1408,-0.1447,-0.1508,-0.152,-0.158,-0.16,-0.1632,-0.1676,-0.1675,-0.1716,-0.1734,-0.1778,-0.179,-0.1853,-0.1865,-0.1876,-0.1879,-0.1877,-0.1876,-0.1897,-0.1893,-0.1882,-0.1882,-0.1881,-0.188,0,-0.1406,-0.1423,-0.1492,-0.1531,-0.1542,-0.1585,-0.1619,-0.1657,-0.1673,-0.1728,-0.1741,-0.1768,-0.1819,-0.1838,-0.19,-0.1909,-0.1982,-0.198,-0.1969,-0.1971,-0.2012,-0.2008,-0.2139,-0.2157,-0.2049,-0.205,-0.205,0,-0.1462,-0.1504,-0.1547,-0.1575,-0.1597,-0.1643,-0.1673,-0.1685,-0.1717,-0.1763,-0.1795,-0.1846,-0.1887,-0.1969,-0.1994,-0.2042,-0.2042,-0.2084,-0.205,-0.2047,-0.2046,-0.2044,-0.2049,-0.2092,-0.2093,-0.2094,-0.2095,0,-0.1561,-0.1567,-0.1609,-0.1654,-0.1689,-0.1726,-0.1761,-0.1785,-0.1803,-0.1838,-0.1889,-0.1921,-0.1984,-0.2035,-0.2083,-0.2106,-0.2105,-0.2105,-0.2117,-0.2118,-0.211,-0.2117,-0.1989,-0.2103,-0.2102,-0.2101,-0.2101,-0.2101,-0.163,-0.1667,-0.1702,-0.175,-0.1777,-0.181,-0.1847,-0.1868,-0.1911,-0.1962,-0.1967,-0.2023,-0.2059,-0.2124,-0.2149,-0.2193,-0.2182,-0.22,-0.2205,-0.2209,-0.2213,-0.2101,-0.2202,-0.2202,-0.2201,-0.2201,-0.2201,0,-0.173,-0.1752,-0.1795,-0.1844,-0.1881,-0.1873,-0.1912,-0.1944,-0.1993,-0.2026,-0.2066,-0.2126,-0.2174,-0.2202,-0.2251,-0.2281,-0.2281,-0.2294,-0.2293,-0.2299,-0.222,-0.2205,-0.2293,-0.2293,-0.2293,-0.2293,-0.2292,-0.2292,-0.1787,-0.1849,-0.1859,-0.1935,-0.1957,-0.2011,-0.2034,-0.2064,-0.2091,-0.2157,-0.2197,-0.2214,-0.2246,-0.2296,-0.2341,-0.2348,-0.2367,-0.238,-0.2387,-0.2313,-0.2304,-0.2295,-0.2281,-0.2384,-0.2384,-0.2462,-0.2463,-0.2463]},{"header":{"parameterUnit":"m.s-1","parameterCategory":1,"la1":30.2991,"la2":30.254,"lo1":-89.0895,"lo2":-89.0444,"dy":0.0017,"dx":0.0017,"nx":28,"ny":28,"refTime":"2023-10-30T21:00:00:Z","depth":0,"parameterNumber":3,"parameterNumberName":"V-component_of_WINDS"},"data":[0,0,0,0,0,0,0,0,0,0,0,0,0,0,0,0,0,0,0,0,0,0,0,0,0,0,0,0,0,0,0,0,0,0,0,0,0,0,0,0,0,0,0,0,0,0,0,0,0,0,0,0,0,0,0,0,0,0,-9.058,-9.0582,0,-9.0781,-9.0783,-9.0785,-9.0667,-9.0661,-9.0655,-9.065,-9.0849,-9.0859,-9.087,0,0,0,0,0,0,0,0,0,0,0,0,0,-9.0089,-9.0099,-9.058,-9.0583,-9.0585,-9.078,-9.0783,-9.0786,-9.0668,-9.0661,-9.0654,-9.0647,-9.0846,-9.0858,-9.0871,0,0,0,0,0,0,0,0,0,0,0,0,0,-9.0297,-9.0102,-9.058,-9.055,-9.0549,-9.078,-9.0783,-9.0787,-9.0669,-9.066,-9.0652,-9.0644,-9.0841,-9.0857,-9.0873,-9.1142,0,0,-9.0921,-9.0928,0,0,0,0,0,0,0,0,-9.0285,-9.0315,-9.0552,-9.0552,-9.0552,-9.069,-9.0683,-9.0906,-9.0671,-9.0623,-9.065,-9.064,-9.0803,-9.0821,-9.0877,-9.1151,-9.116,-9.0923,-9.0932,-9.0939,-9.0944,0,0,0,0,0,0,0,-9.0271,-9.0306,-9.0659,-9.0555,-9.0556,-9.0524,-9.0545,-9.0725,-9.0758,-9.0627,-9.0619,-9.0644,-9.0801,-9.0862,-9.0881,-9.1163,-9.0922,-9.0936,-9.0946,-9.0952,-9.1668,-9.1677,0,0,0,0,0,0,-9.026,-9.0295,-9.0653,-9.0665,-9.0395,-9.054,-9.0563,-9.0654,-9.0756,-9.0763,-9.0652,-9.0638,-9.0839,-9.0863,-9.0888,-9.1211,-9.0939,-9.0954,-9.0963,-9.1659,-9.167,-9.168,0,0,0,0,0,0,-9.025,-9.0293,-9.0645,-9.0478,-9.052,-9.0558,-9.0662,-9.0663,-9.0724,-9.0775,-9.078,-9.0709,-9.0834,-9.0865,-9.108,-9.1216,-9.0961,-9.0976,-9.1648,-9.1662,-9.1675,-9.1859,0,0,0,0,0,0,-9.0236,-9.029,-9.0394,-9.0481,-9.053,-9.0837,-9.067,-9.0673,-9.0753,-9.0737,-9.083,-9.0837,-9.0829,-9.1057,-9.1096,-9.1233,-9.0988,-9.1636,-9.1654,-9.1671,-9.1841,-9.1878,-9.1909,0,0,0,0,0,-9.0219,-9.0436,-9.04,-9.0444,-9.0661,-9.0845,-9.0872,-9.0861,-9.0764,-9.0868,-9.0901,-9.0834,-9.1195,-9.108,-9.1123,-9.1267,-9.1627,-9.1649,-9.1669,-9.1826,-9.187,-9.1908,0,0,0,0,0,0,-9.0362,-9.0447,-9.0408,-9.0661,-9.0747,-9.0824,-9.0956,-9.0909,-9.1022,-9.1003,-9.0982,-9.1004,-9.1229,-9.1268,-9.114,-9.1533,-9.1395,-9.1426,-9.1499,-9.1542,-9.1576,-9.1562,-9.1001,0,0,0,0,0,-9.0424,-9.0567,-9.0633,-9.0849,-9.0895,-9.0918,-9.0997,-9.0982,-9.1069,-9.1104,-9.1152,-9.1238,-9.137,-9.1458,-9.1583,-9.1845,-9.1864,-9.1965,-9.1999,-9.2027,-9.2055,-9.2197,-9.2243,-9.175,-9.175,-9.175,0,0,-9.0551,-9.0615,-9.0707,-9.088,-9.0944,-9.1092,-9.0949,-9.1111,-9.122,-9.1128,-9.1335,-9.1373,-9.1467,-9.1708,-9.1816,-9.1748,-9.2194,-9.2054,-9.2076,-9.2088,-9.2223,-9.227,-9.2311,-9.1765,-9.1762,-9.176,0,0,-9.086,-9.0923,-9.1111,-9.1179,-9.1279,-9.1294,-9.1339,-9.1424,-9.1447,-9.1655,-9.1589,-9.1716,-9.1945,-9.2015,-9.2081,-9.2416,-9.2359,-9.2457,-9.2635,-9.2774,-9.2813,-9.2847,-9.2968,-9.3011,-9.2484,-9.2484,-9.2484,0,-9.1005,-9.1227,-9.1212,-9.1381,-9.1458,-9.1383,-9.1573,-9.1639,-9.1774,-9.1829,-9.1751,-9.2038,-9.2095,-9.2351,-9.2434,-9.2489,-9.2539,-9.2447,-9.2809,-9.2843,-9.2875,-9.299,-9.3035,-9.2496,-9.2494,-9.2493,-9.2492,0,-9.1401,-9.1556,-9.1695,-9.1831,-9.1924,-9.2102,-9.2113,-9.2208,-9.2184,-9.2206,-9.2418,-9.2485,-9.2622,-9.2681,-9.2658,-9.2935,-9.289,-9.2811,-9.2672,-9.2934,-9.3041,-9.3085,-9.2512,-9.2508,-9.2504,-9.2502,0,0,-9.1807,-9.1932,-9.1984,-9.2045,-9.215,-9.2269,-9.2442,-9.2579,-9.2662,-9.2757,-9.2902,-9.3097,-9.3026,-9.31,-9.3084,-9.3206,-9.3469,-9.3113,-9.3114,-9.3178,-9.3778,-9.3837,-9.3889,-9.3431,-9.3439,-9.3446,-9.377,0,-9.2122,-9.2429,-9.2421,-9.2705,-9.2848,-9.2778,-9.2929,-9.301,-9.3035,-9.3158,-9.3183,-9.3323,-9.3218,-9.3263,-9.338,-9.3412,-9.3589,-9.3388,-9.3564,-9.3571,-9.3545,-9.3944,-9.4008,-9.4311,-9.3812,-9.3819,-9.3824,0,-9.2533,-9.2645,-9.2945,-9.303,-9.3089,-9.3226,-9.335,-9.3469,-9.3558,-9.3567,-9.3652,-9.3616,-9.379,-9.3646,-9.3886,-9.375,-9.3821,-9.3847,-9.3859,-9.3876,-9.3715,-9.3973,-9.4408,-9.4454,-9.389,-9.3885,-9.388,0,-9.28,-9.3025,-9.3234,-9.3288,-9.3392,-9.349,-9.3537,-9.3618,-9.3701,-9.3808,-9.3862,-9.3988,-9.4057,-9.4155,-9.4154,-9.4049,-9.4397,-9.4252,-9.4409,-9.4409,-9.4486,-9.4482,-9.494,-9.453,-9.453,-9.4529,-9.4528,0,-9.3154,-9.3341,-9.3356,-9.3484,-9.369,-9.3678,-9.3881,-9.3919,-9.3991,-9.4125,-9.407,-9.4196,-9.4187,-9.4313,-9.4313,-9.4512,-9.4543,-9.4555,-9.4553,-9.4561,-9.456,-9.4608,-9.4588,-9.4541,-9.4538,-9.4536,-9.4534,0,-9.3488,-9.3506,-9.3729,-9.381,-9.3834,-9.3983,-9.4051,-9.4172,-9.4192,-9.4362,-9.44,-9.4431,-9.4578,-9.4586,-9.4754,-9.4754,-9.4996,-9.497,-9.4968,-9.4963,-9.512,-9.5106,-9.5627,-9.5694,-9.524,-9.5244,-9.5248,0,-9.3715,-9.3857,-9.3953,-9.404,-9.4094,-9.4234,-9.4319,-9.4311,-9.4401,-9.4514,-9.4621,-9.4763,-9.4876,-9.5113,-9.5149,-9.5277,-9.5254,-9.5428,-9.5273,-9.5277,-9.5259,-9.5251,-9.5265,-9.5458,-9.5463,-9.5468,-9.5471,0,-9.4114,-9.4116,-9.4242,-9.4372,-9.4475,-9.4576,-9.4669,-9.4743,-9.4746,-9.485,-9.5,-9.5088,-9.5261,-9.5402,-9.5527,-9.5573,-9.5524,-9.5519,-9.5562,-9.5573,-9.5566,-9.5573,-9.5051,-9.5508,-9.5504,-9.5501,-9.5499,-9.5498,-9.4402,-9.4526,-9.4614,-9.4755,-9.4826,-9.4915,-9.5033,-9.5069,-9.5195,-9.5337,-9.5323,-9.5491,-9.5574,-9.5738,-9.5794,-9.5923,-9.5864,-9.5926,-9.5942,-9.5959,-9.5976,-9.5545,-9.5946,-9.5945,-9.5944,-9.5943,-9.5942,0,-9.48,-9.4854,-9.4984,-9.5119,-9.523,-9.5175,-9.5275,-9.5372,-9.5521,-9.5604,-9.5717,-9.589,-9.6027,-9.6074,-9.6207,-9.6301,-9.6281,-9.6336,-9.633,-9.6341,-9.6021,-9.5971,-9.635,-9.635,-9.635,-9.635,-9.635,-9.6349,-9.5021,-9.5227,-9.524,-9.548,-9.553,-9.5696,-9.5759,-9.584,-9.5907,-9.6103,-9.6218,-9.6248,-9.6317,-9.6454,-9.6577,-9.6587,-9.6639,-9.6704,-9.6705,-9.6405,-9.6364,-9.6325,-9.6278,-9.6715,-9.6715,-9.7014,-9.7017,-9.7019]}]]